Location: Clanezzo
(45.7500°N, 9.6000°E)
Time: 02:07:51
(UTC+00:00)

Terra - Pass Details

Date: 12 May 2021
Orbit: 701 x 703 km, 98.2° (Epoch: 18 June)

Event Time Altitude Azimuth Distance (km) Brightness Sun altitude
Exits shadow 20:37:05 26° 120° (ESE) 1,365 2.8 -16.3°
Maximum altitude 20:39:11 41° 69° (ENE) 1,022 2.5 -16.5°
Drops below altitude 10° 20:43:39 10° 0° (N) 2,182 5.1 -17.0°
Sets 20:46:01 0° 353° (N) 3,104 6.2 -17.2°
